FW1203 Weather Reports


Display with metric or nautical units.
time (UTC)temp
F
wind
direction
speed
MPH
gust
MPH
rain 1hr
in
rain 24hr
in
rain mn
in
humidity
%
barometer
mb
20260901135803 79 0 0.0 0.0 0.00 0.06 0.00 99 1012.4
20260901135305 78 0 0.0 0.0 0.00 0.06 0.00 99 1012.5
20260901134803 78 0 0.0 0.0 0.00 0.08 0.00 99 1012.4
20260901134303 78 0 0.0 0.0 0.00 0.10 0.00 99 1012.5
20260901133803 77 0 0.0 0.0 0.00 0.10 0.00 99 1012.6
20260901133303 77 0 0.0 0.0 0.00 0.10 0.00 99 1012.7
20260901132803 77 0 0.0 0.0 0.00 0.10 0.00 99 1012.7
20260901132306 77 0 0.0 0.0 0.00 0.11 0.00 99 1012.8
20260901131803 76 0 0.0 0.0 0.00 0.11 0.00 99 1012.9
20260901131303 76 0 0.0 0.0 0.00 0.11 0.00 99 1012.8
20260901130803 76 0 0.0 0.0 0.00 0.11 0.00 99 1012.7
20260901130303 76 0 0.0 0.0 0.00 0.12 0.00 99 1012.7
20260901125803 76 0 0.0 0.0 0.00 0.12 0.00 99 1012.7
20260901125308 75 0 0.0 0.0 0.00 0.12 0.00 99 1012.6
20260901124803 75 0 0.0 0.0 0.00 0.14 0.00 99 1012.6
20260901124303 75 0 0.0 0.0 0.00 0.17 0.00 99 1012.6
20260901123803 75 0 0.0 0.0 0.00 0.18 0.00 99 1012.6
20260901123303 75 0 0.0 0.0 0.00 0.20 0.00 99 1012.6
20260901122803 74 0 0.0 0.0 0.00 0.22 0.00 99 1012.6
20260901122306 74 0 0.0 0.0 0.00 0.22 0.00 99 1012.5
20260901121803 74 0 0.0 0.0 0.00 0.22 0.00 99 1012.4
20260901121303 74 0 0.0 0.0 0.00 0.24 0.00 99 1012.5
20260901120803 74 0 0.0 0.0 0.00 0.34 0.00 98 1012.4
20260901120303 73 0 0.0 0.0 0.00 0.34 0.00 98 1012.4
20260901115803 73 0 0.0 0.0 0.00 0.37 0.00 99 1012.4
20260901115306 73 0 0.0 0.0 0.00 0.38 0.00 98 1012.3
20260901114803 73 0 0.0 0.0 0.00 0.38 0.00 98 1012.3
20260901114303 73 0 0.0 0.0 0.00 0.38 0.00 98 1012.3
20260901113803 73 0 0.0 0.0 0.00 0.40 0.00 98 1012.2
20260901113303 73 0 0.0 0.0 0.00 0.40 0.00 98 1012.2
20260901112803 73 0 0.0 0.0 0.00 0.40 0.00 98 1012.1
20260901112306 73 0 0.0 0.0 0.00 0.40 0.00 98 1012.1
20260901111803 73 0 0.0 0.0 0.00 0.40 0.00 98 1012.0
20260901111303 73 0 0.0 0.0 0.00 0.40 0.00 98 1011.9
20260901110803 73 0 0.0 0.0 0.00 0.40 0.00 98 1012.0
20260901110303 73 0 0.0 0.0 0.00 0.40 0.00 98 1011.8
20260901105803 73 0 0.0 0.0 0.00 0.40 0.00 98 1011.8
20260901105305 73 0 0.0 0.0 0.00 0.40 0.00 98 1011.8
20260901104803 73 0 0.0 0.0 0.00 0.40 0.00 98 1011.9
20260901104303 73 0 0.0 0.0 0.00 0.40 0.00 98 1011.7
20260901103803 73 0 0.0 0.0 0.00 0.40 0.00 98 1011.8
20260901103303 73 0 0.0 0.0 0.00 0.40 0.00 98 1011.7
20260901102803 73 0 0.0 0.0 0.00 0.40 0.00 98 1011.6
20260901101803 74 0 0.0 0.0 0.00 0.40 0.00 98 1011.6
20260901101303 74 0 0.0 0.0 0.00 0.40 0.00 98 1011.7
20260901100803 74 0 0.0 0.0 0.00 0.40 0.00 98 1011.7
20260901100303 74 0 0.0 0.0 0.00 0.40 0.00 98 1011.7
20260901095803 74 0 0.0 0.0 0.00 0.40 0.00 98 1011.6
20260901095306 74 0 0.0 0.0 0.00 0.40 0.00 98 1011.6
20260901094803 74 0 0.0 0.0 0.00 0.40 0.00 98 1011.6
20260901094303 74 0 0.0 0.0 0.00 0.40 0.00 98 1011.6
20260901093803 74 0 0.0 0.0 0.00 0.40 0.00 98 1011.6
20260901093303 74 0 0.0 0.0 0.00 0.40 0.00 98 1011.6
20260901092803 74 0 0.0 0.0 0.00 0.40 0.00 98 1011.5
20260901092305 74 0 0.0 0.0 0.00 0.40 0.00 98 1011.5
20260901091803 74 0 0.0 0.0 0.00 0.40 0.00 98 1011.4
20260901091303 74 0 0.0 0.0 0.00 0.40 0.00 98 1011.3
20260901090803 74 0 0.0 0.0 0.00 0.40 0.00 98 1011.3
20260901090303 74 0 0.0 0.0 0.00 0.40 0.00 98 1011.3
20260901085803 74 0 0.0 0.0 0.00 0.40 0.00 98 1011.3
20260901085305 74 0 0.0 0.0 0.00 0.40 0.00 98 1011.3
20260901084803 74 0 0.0 0.0 0.00 0.40 0.00 98 1011.2
20260901084303 74 0 0.0 0.0 0.00 0.40 0.00 98 1011.2
20260901083803 74 0 0.0 0.0 0.00 0.40 0.00 98 1011.2
20260901083303 74 0 0.0 0.0 0.00 0.40 0.00 97 1011.2
20260901082803 74 0 0.0 0.0 0.00 0.40 0.00 97 1011.2
20260901082306 74 0 0.0 0.0 0.00 0.40 0.00 97 1011.1
20260901081803 74 0 0.0 0.0 0.00 0.40 0.00 97 1011.1
20260901081303 74 0 0.0 0.0 0.00 0.40 0.00 97 1011.1
20260901080803 74 0 0.0 0.0 0.00 0.40 0.00 97 1011.1
20260901080303 74 0 0.0 0.0 0.00 0.40 0.00 97 1011.1
20260901075803 74 0 0.0 0.0 0.00 0.40 0.00 97 1011.1
20260901075307 74 0 0.0 0.0 0.00 0.40 0.00 97 1011.2
20260901074803 74 0 0.0 0.0 0.00 0.40 0.00 97 1011.2
20260901074303 74 0 0.0 0.0 0.00 0.40 0.00 97 1011.3
20260901073803 74 0 0.0 0.0 0.00 0.40 0.00 97 1011.3
20260901073303 74 0 0.0 0.0 0.00 0.40 0.00 97 1011.3
20260901072803 74 0 0.0 0.0 0.00 0.40 0.00 97 1011.3
20260901072308 74 0 0.0 0.0 0.00 0.40 0.00 97 1011.2
20260901071803 74 0 0.0 0.0 0.00 0.40 0.00 97 1011.1
20260901071303 75 0 0.0 0.0 0.00 0.40 0.00 97 1011.1
20260901070803 75 0 0.0 0.0 0.00 0.40 0.00 97 1011.0
20260901065803 75 0 0.0 0.0 0.00 0.40 0.00 97 1011.1
20260901065305 75 0 0.0 0.0 0.00 0.40 0.00 97 1011.2
20260901064803 75 0 0.0 0.0 0.00 0.40 0.00 97 1011.1
20260901064303 75 0 0.0 0.0 0.00 0.40 0.00 97 1011.1
20260901063803 75 0 0.0 0.0 0.00 0.40 0.00 97 1011.1
20260901063303 75 0 0.0 0.0 0.00 0.40 0.00 97 1011.2
20260901062803 75 0 0.0 0.0 0.00 0.40 0.00 97 1011.2
20260901062309 75 0 0.0 0.0 0.00 0.40 0.00 97 1011.1
20260901061803 75 0 0.0 0.0 0.00 0.40 0.00 97 1011.1
20260901061303 75 0 0.0 0.0 0.00 0.40 0.00 97 1011.1
20260901060803 75 0 0.0 0.0 0.00 0.40 0.00 97 1011.1
20260901060303 75 0 0.0 0.0 0.00 0.40 0.00 96 1011.1
20260901055803 75 0 0.0 0.0 0.00 0.40 0.00 96 1011.1
20260901055306 76 0 0.0 0.0 0.00 0.40 0.00 96 1011.2
20260901054803 76 0 0.0 0.0 0.00 0.40 0.00 96 1011.2
20260901054303 76 0 0.0 0.0 0.00 0.40 0.00 97 1011.1
20260901053803 76 0 0.0 0.0 0.00 0.40 0.00 97 1011.2
20260901053303 76 0 0.0 0.0 0.00 0.40 0.00 97 1011.2
20260901052803 76 0 0.0 0.0 0.00 0.40 0.00 96 1011.2
20260901052306 76 0 0.0 0.0 0.00 0.40 0.00 96 1011.2
20260901051803 76 0 0.0 0.0 0.00 0.40 0.00 96 1011.2
20260901051303 76 0 0.0 0.0 0.00 0.40 0.00 96 1011.1
20260901050803 76 0 0.0 0.0 0.00 0.40 0.00 96 1011.1
20260901050303 76 0 0.0 0.0 0.00 0.40 0.00 96 1011.2
20260901045803 76 0 0.0 0.0 0.00 0.40 0.00 96 1011.2
20260901045306 76 0 0.0 0.0 0.00 0.40 0.00 96 1011.3
20260901044803 76 0 0.0 0.0 0.00 0.40 0.00 96 1011.3
20260901044303 76 0 0.0 0.0 0.00 0.40 0.00 96 1011.2
20260901043803 76 0 0.0 0.0 0.00 0.40 0.00 96 1011.2
20260901043303 76 0 0.0 0.0 0.00 0.40 0.00 96 1011.2
20260901042803 76 0 0.0 0.0 0.00 0.40 0.00 96 1011.2
20260901042305 77 0 0.0 0.0 0.00 0.40 0.00 96 1011.2
20260901041803 77 0 0.0 0.0 0.00 0.40 0.00 96 1011.2
20260901041303 77 0 0.0 0.0 0.00 0.40 0.00 96 1011.2
20260901040803 77 0 0.0 0.0 0.00 0.40 0.00 95 1011.2
20260901040303 77 0 0.0 0.0 0.00 0.40 0.00 95 1011.2
20260901035803 77 0 0.0 0.0 0.00 0.40 0.00 95 1011.2
20260901035305 77 0 0.0 0.0 0.00 0.40 0.00 95 1011.3
20260901034803 77 0 0.0 0.0 0.00 0.40 0.00 95 1011.3
20260901034303 77 0 0.0 0.0 0.00 0.40 0.00 95 1011.4
20260901033803 77 0 0.0 0.0 0.00 0.40 0.00 95 1011.4
20260901033303 77 0 0.0 0.0 0.00 0.40 0.00 95 1011.4
20260901032803 77 0 0.0 0.0 0.00 0.40 0.00 95 1011.3
20260901032306 77 0 0.0 0.0 0.00 0.40 0.00 95 1011.4
20260901031803 77 0 0.0 0.0 0.00 0.40 0.00 95 1011.4
20260901031303 78 0 0.0 0.0 0.00 0.40 0.00 95 1011.4
20260901030803 78 0 0.0 0.0 0.00 0.40 0.00 95 1011.4
20260901030303 78 0 0.0 0.0 0.00 0.40 0.00 95 1011.3
20260901025803 78 0 0.0 0.0 0.00 0.40 0.00 95 1011.2
20260901025305 78 0 0.0 0.0 0.00 0.40 0.00 95 1011.3
20260901024803 78 0 0.0 0.0 0.00 0.40 0.00 95 1011.3
20260901024303 78 0 0.0 0.0 0.00 0.40 0.00 95 1011.4
20260901023803 78 0 0.0 0.0 0.00 0.40 0.00 95 1011.4
20260901023303 78 0 0.0 0.0 0.00 0.40 0.00 95 1011.4
20260901022803 78 0 0.0 0.0 0.00 0.40 0.00 95 1011.4
20260901022305 78 0 0.0 0.0 0.00 0.40 0.00 95 1011.2
20260901021803 78 0 0.0 0.0 0.00 0.40 0.40 95 1011.4
20260901021303 78 0 0.0 0.0 0.00 0.40 0.40 95 1011.5
20260901020803 78 0 0.0 0.0 0.00 0.40 0.40 95 1011.5
20260901020303 78 0 0.0 0.0 0.00 0.40 0.40 95 1011.6
20260901015803 78 0 0.0 0.0 0.00 0.40 0.40 95 1011.6
20260901015305 78 0 0.0 0.0 0.00 0.40 0.40 95 1011.5
20260901014803 78 0 0.0 0.0 0.00 0.40 0.40 95 1011.5
20260901014303 78 0 0.0 0.0 0.00 0.40 0.40 95 1011.5
20260901013803 78 0 0.0 0.0 0.00 0.40 0.40 95 1011.5
20260901013303 78 0 0.0 0.0 0.00 0.40 0.40 95 1011.4
20260901012803 78 0 0.0 0.0 0.00 0.40 0.40 95 1011.2
20260901012306 78 0 0.0 0.0 0.00 0.40 0.40 94 1011.1
20260901011803 78 0 0.0 0.0 0.00 0.40 0.40 94 1011.2
20260901011303 78 0 0.0 0.0 0.00 0.40 0.40 94 1011.1
20260901010803 78 0 0.0 0.0 0.00 0.40 0.40 94 1011.0
20260901010303 78 0 0.0 0.0 0.00 0.40 0.40 94 1011.0
20260901005803 78 0 0.0 0.0 0.00 0.40 0.40 94 1011.0
20260901005306 78 0 0.0 0.0 0.00 0.40 0.40 94 1011.1
20260901004803 78 0 0.0 0.0 0.00 0.40 0.40 94 1011.1
20260901004303 78 0 0.0 0.0 0.00 0.40 0.40 94 1011.0
20260901003803 78 0 0.0 0.0 0.00 0.40 0.40 94 1010.9
20260901003303 78 0 0.0 0.0 0.00 0.40 0.40 94 1011.0
20260901002803 79 0 0.0 0.0 0.00 0.40 0.40 94 1011.0
20260901002305 79 0 0.0 0.0 0.00 0.40 0.40 94 1010.8
20260901001803 79 0 0.0 0.0 0.00 0.40 0.40 94 1010.8
20260901001303 79 0 0.0 0.0 0.00 0.40 0.40 94 1010.7
20260901000803 79 0 0.0 0.0 0.00 0.40 0.40 94 1010.7
20260901000303 79 0 0.0 0.0 0.00 0.40 0.40 94 1010.5
20260831235803 79 0 0.0 0.0 0.00 0.40 0.40 94 1010.4
20260831235306 79 0 0.0 0.0 0.00 0.41 0.40 94 1010.5
20260831234803 79 0 0.0 0.0 0.00 0.41 0.40 94 1010.6
20260831234303 79 0 0.0 0.0 0.00 0.41 0.40 94 1010.7
20260831233803 79 0 0.0 0.0 0.00 0.42 0.40 94 1010.8
20260831233303 79 0 0.0 0.0 0.00 0.42 0.40 94 1011.0
20260831232803 79 0 0.0 0.0 0.00 0.42 0.40 94 1011.0
20260831232305 79 0 0.0 0.0 0.00 0.42 0.40 94 1011.0
20260831231803 79 0 0.0 0.0 0.00 0.42 0.40 95 1010.9
20260831231303 79 0 0.0 0.0 0.00 0.42 0.40 95 1010.7
20260831230803 79 0 0.0 0.0 0.00 0.42 0.40 95 1010.7
20260831230303 79 0 0.0 0.0 0.00 0.42 0.40 95 1010.7
20260831225803 79 0 0.0 0.0 0.00 0.42 0.40 95 1010.6
20260831225306 79 0 0.0 0.0 0.00 0.42 0.40 95 1010.5
20260831224803 79 0 0.0 0.0 0.00 0.42 0.40 95 1010.5
20260831224303 79 0 0.0 0.0 0.01 0.42 0.40 95 1010.4
20260831223803 79 0 0.0 0.0 0.01 0.42 0.40 95 1010.5
20260831223303 78 0 0.0 0.0 0.01 0.42 0.40 95 1010.6
20260831222803 78 0 0.0 0.0 0.02 0.42 0.40 95 1010.5
20260831222306 78 0 0.0 0.0 0.03 0.42 0.40 95 1010.5
20260831221803 78 0 0.0 0.0 0.03 0.42 0.40 95 1010.6
20260831221303 78 0 0.0 0.0 0.03 0.42 0.40 95 1010.7
20260831220803 78 0 0.0 0.0 0.03 0.42 0.40 95 1010.6
20260831220303 78 0 0.0 0.0 0.03 0.42 0.40 94 1010.5
20260831215803 78 0 0.0 0.0 0.03 0.42 0.40 94 1010.7
20260831215306 78 0 0.0 0.0 0.06 0.42 0.40 94 1010.7
20260831214803 78 0 0.0 0.0 0.06 0.42 0.40 94 1010.6
20260831214303 78 0 0.0 0.0 0.05 0.41 0.39 93 1010.3
20260831213803 78 0 0.0 0.0 0.05 0.41 0.39 93 1010.2
20260831213303 79 0 0.0 0.0 0.05 0.41 0.39 93 1010.3
20260831212803 79 0 0.0 0.0 0.04 0.40 0.38 92 1010.5
20260831212306 79 0 0.0 0.0 0.03 0.39 0.37 92 1010.1
20260831211803 79 0 0.0 0.0 0.03 0.39 0.37 91 1009.7
20260831211303 79 0 0.0 0.0 0.03 0.39 0.37 91 1009.6
20260831210803 79 0 0.0 0.0 0.03 0.39 0.37 90 1009.7
20260831210303 79 0 0.0 0.0 0.03 0.39 0.37 89 1009.9
20260831205803 80 0 0.0 0.0 0.03 0.39 0.37 88 1010.3
20260831205305 80 0 0.0 0.0 0.00 0.36 0.34 87 1011.3
20260831204803 80 0 0.0 0.0 0.00 0.36 0.34 86 1011.7
20260831204303 80 0 0.0 0.0 0.00 0.36 0.34 86 1011.8
20260831203803 80 0 0.0 0.0 0.00 0.36 0.34 86 1012.2
20260831203303 80 0 0.0 0.0 0.00 0.36 0.34 85 1011.9
20260831202803 80 0 0.0 0.0 0.00 0.36 0.34 84 1011.5
20260831202306 80 0 0.0 0.0 0.00 0.36 0.34 83 1011.2
20260831201803 81 0 0.0 0.0 0.00 0.36 0.34 82 1011.3
20260831201303 81 0 0.0 0.0 0.00 0.36 0.34 81 1011.0
20260831200803 81 0 0.0 0.0 0.00 0.36 0.34 80 1010.7
20260831200303 82 0 0.0 0.0 0.00 0.36 0.34 79 1010.7
20260831195803 82 0 0.0 0.0 0.00 0.36 0.34 77 1010.5
20260831195306 83 0 0.0 0.0 0.00 0.36 0.34 77 1010.6
20260831194803 83 0 0.0 0.0 0.00 0.36 0.34 76 1010.9
20260831194303 83 0 0.0 0.0 0.00 0.36 0.34 74 1010.8
20260831193803 84 0 0.0 0.0 0.00 0.36 0.34 73 1010.5
20260831193303 84 0 0.0 0.0 0.00 0.36 0.34 72 1011.0
20260831192803 84 0 0.0 0.0 0.00 0.36 0.34 71 1010.8
20260831192305 85 0 0.0 0.0 0.00 0.36 0.34 70 1010.6
20260831191803 85 0 0.0 0.0 0.00 0.36 0.34 70 1010.8
20260831191303 85 0 0.0 0.0 0.00 0.36 0.34 69 1010.7
20260831190803 86 0 0.0 0.0 0.00 0.36 0.34 67 1010.9
20260831190303 86 0 0.0 0.0 0.00 0.36 0.34 67 1010.7
20260831185803 87 0 0.0 0.0 0.00 0.36 0.34 69 1010.6
20260831185306 87 0 0.0 0.0 0.00 0.36 0.34 68 1010.7
20260831184803 87 0 0.0 0.0 0.00 0.36 0.34 67 1010.7
20260831184303 88 0 0.0 0.0 0.00 0.36 0.34 67 1010.7
20260831183803 87 0 0.0 0.0 0.00 0.36 0.34 68 1010.6
20260831183303 87 0 0.0 0.0 0.00 0.36 0.34 68 1010.6
20260831182803 86 0 0.0 0.0 0.00 0.36 0.34 70 1010.7
20260831182305 86 0 0.0 0.0 0.00 0.36 0.34 69 1010.7
20260831181803 86 0 0.0 0.0 0.00 0.36 0.34 70 1010.7
20260831181303 85 0 0.0 0.0 0.00 0.36 0.34 70 1010.8
20260831180803 85 0 0.0 0.0 0.00 0.36 0.34 70 1010.9
20260831180303 85 0 0.0 0.0 0.00 0.36 0.34 70 1011.0
20260831175803 85 0 0.0 0.0 0.00 0.36 0.34 73 1011.1
20260831175305 84 0 0.0 0.0 0.00 0.36 0.34 72 1011.1
20260831174803 84 0 0.0 0.0 0.00 0.36 0.34 72 1011.2
20260831174303 84 0 0.0 0.0 0.00 0.36 0.34 73 1011.2
20260831173803 83 0 0.0 0.0 0.00 0.36 0.34 73 1011.3
20260831173303 83 0 0.0 0.0 0.00 0.36 0.34 73 1011.3
20260831172803 82 0 0.0 0.0 0.00 0.36 0.34 74 1011.4
20260831172306 82 0 0.0 0.0 0.00 0.36 0.34 75 1011.5
20260831171803 82 0 0.0 0.0 0.00 0.36 0.34 76 1011.7
20260831171303 81 0 0.0 0.0 0.00 0.36 0.34 78 1011.7
20260831170803 81 0 0.0 0.0 0.00 0.36 0.34 79 1011.9
20260831170303 80 0 0.0 0.0 0.00 0.36 0.34 80 1011.9
20260831165803 80 0 0.0 0.0 0.00 0.36 0.34 78 1012.0
20260831165305 80 0 0.0 0.0 0.00 0.36 0.34 79 1012.0
20260831164803 79 0 0.0 0.0 0.00 0.36 0.34 80 1012.0
20260831164303 79 0 0.0 0.0 0.00 0.36 0.34 81 1012.0
20260831163803 79 0 0.0 0.0 0.00 0.36 0.34 84 1012.1
20260831163303 78 0 0.0 0.0 0.00 0.36 0.34 86 1012.2
20260831162803 78 0 0.0 0.0 0.00 0.36 0.34 87 1012.4
20260831162305 77 0 0.0 0.0 0.00 0.36 0.34 88 1012.4
20260831161803 77 0 0.0 0.0 0.00 0.36 0.34 89 1012.4
20260831161303 76 0 0.0 0.0 0.00 0.36 0.34 88 1012.3
20260831160803 76 0 0.0 0.0 0.00 0.36 0.34 90 1012.4
20260831160303 75 0 0.0 0.0 0.00 0.36 0.34 91 1012.5
20260831155803 75 0 0.0 0.0 0.00 0.36 0.34 93 1012.4
20260831155306 75 0 0.0 0.0 0.00 0.36 0.34 93 1012.4
20260831154803 74 0 0.0 0.0 0.00 0.36 0.34 95 1012.4
20260831154303 74 0 0.0 0.0 0.00 0.36 0.34 95 1012.4
20260831153803 74 0 0.0 0.0 0.00 0.36 0.34 95 1012.6
20260831153303 74 0 0.0 0.0 0.00 0.36 0.34 96 1012.7
20260831152803 74 0 0.0 0.0 0.00 0.36 0.34 97 1012.7
20260831152306 74 0 0.0 0.0 0.00 0.36 0.34 97 1012.9
20260831151803 74 0 0.0 0.0 0.00 0.36 0.34 97 1012.8
20260831151303 73 0 0.0 0.0 0.00 0.36 0.34 98 1012.8
20260831150803 73 0 0.0 0.0 0.00 0.36 0.34 98 1012.8
20260831150303 73 0 0.0 0.0 0.00 0.36 0.34 98 1012.8
20260831145803 72 0 0.0 0.0 0.00 0.36 0.34 97 1012.8
20260831145306 72 0 0.0 0.0 0.00 0.36 0.34 97 1012.7
20260831144803 72 0 0.0 0.0 0.02 0.36 0.34 97 1012.7
20260831144303 72 0 0.0 0.0 0.04 0.36 0.34 98 1012.8
20260831143803 72 0 0.0 0.0 0.04 0.36 0.34 98 1012.8
20260831143303 72 0 0.0 0.0 0.04 0.36 0.34 98 1012.7
20260831142803 71 0 0.0 0.0 0.04 0.36 0.34 97 1012.8
20260831142305 71 0 0.0 0.0 0.05 0.36 0.34 97 1012.8
20260831141803 71 0 0.0 0.0 0.05 0.36 0.34 97 1012.8
20260831141303 71 0 0.0 0.0 0.05 0.36 0.34 97 1012.9
20260831140803 71 0 0.0 0.0 0.05 0.36 0.34 97 1012.8
20260831140303 71 0 0.0 0.0 0.06 0.36 0.34 97 1012.9